This is the latest recevied weather packets stored in our database for station/object OK1LPD-5. If no packets are shown the sender has not sent any weather packets the latest 10 day(s).
| Time | Temp. | Humidity | Pressure | Rain* | Wind** | Luminosity | Snow |
|---|---|---|---|---|---|---|---|
| 1777700412 | 5.56° C | 99% | 1022.1 hPa | 0 mm | - | - | - |
| 1777699811 | 4.44° C | 99% | 1022.2 hPa | 0 mm | - | - | - |
| 1777699210 | 4.44° C | 99% | 1022.2 hPa | 0 mm | - | - | - |
| 1777698613 | 3.89° C | 99% | 1022.2 hPa | 0 mm | - | - | - |
| 1777698009 | 3.33° C | 99% | 1022.1 hPa | 0 mm | - | - | - |
| 1777697409 | 2.78° C | 99% | 1022.1 hPa | 0 mm | - | - | - |
| 1777696813 | 2.22° C | 99% | 1022 hPa | 0 mm | - | - | - |
| 1777696211 | 1.67° C | 99% | 1021.9 hPa | 0 mm | - | - | - |
| 1777695609 | 1.67° C | 99% | 1021.9 hPa | 0 mm | - | - | - |
| 1777695012 | 1.67° C | 99% | 1021.7 hPa | 0 mm | - | - | - |
| 1777694412 | 1.67° C | 99% | 1021.6 hPa | 0 mm | - | - | - |
| 1777693808 | 1.67° C | 99% | 1021.6 hPa | 0 mm | - | - | - |
| 1777693214 | 1.67° C | 99% | 1021.6 hPa | 0 mm | - | - | - |
| 1777692611 | 1.67° C | 99% | 1021.5 hPa | 0 mm | - | - | - |
| 1777692008 | 1.67° C | 99% | 1021.6 hPa | 0 mm | - | - | - |
| 1777691411 | 1.67° C | 99% | 1021.6 hPa | 0 mm | - | - | - |
| 1777690812 | 2.22° C | 99% | 1021.8 hPa | 0 mm | - | - | - |
| 1777690210 | 2.22° C | 99% | 1021.7 hPa | 0 mm | - | - | - |
| 1777689612 | 2.22° C | 99% | 1021.7 hPa | 0 mm | - | - | - |
| 1777689009 | 2.22° C | 99% | 1021.7 hPa | 0 mm | - | - | - |
| 1777688409 | 2.22° C | 99% | 1021.5 hPa | 0 mm | - | - | - |
| 1777687810 | 2.78° C | 99% | 1021.5 hPa | 0 mm | - | - | - |
| 1777687209 | 2.78° C | 99% | 1021.5 hPa | 0 mm | - | - | - |
| 1777686608 | 2.78° C | 99% | 1021.6 hPa | 0 mm | - | - | - |
| 1777686011 | 3.33° C | 99% | 1021.5 hPa | 0 mm | - | - | - |
* Rain latest hour (hover to see other rain measurements)
** Current wind speed in m/s (hover to see current wind gust speed)